Location: Unspecified
(0.0000°N, 0.0000°E)
Time: 11:15:38
(UTC+00:00)

Vanguard 2 - Pass Details

Date: 27 November 2019
Orbit: 553 x 2938 km, 32.9° (Epoch: 14 December)

Event Time Altitude Azimuth Distance (km) Brightness Sun altitude
Rises 15:13:54 0° 279° (W) 2,766 11.1 35.4°
Reaches altitude 10° 15:16:36 10° 261° (W) 1,818 10.7 34.8°
Maximum altitude 15:19:34 20° 211° (SSW) 1,326 9.9 34.2°
Drops below altitude 10° 15:22:46 10° 162° (SSE) 1,979 9.8 33.4°
Sets 15:25:53 0° 145° (SE) 3,105 10.6 32.7°
